Location: *
(11.7485°N, 79.7483°E)
Time: 11:47:41
(UTC+00:00)

COSMO-SKYMED 1 - Pass Details

Date: 22 January 2021
Orbit: 621 x 623 km, 97.9° (Epoch: 24 February)

Event Time Altitude Azimuth Distance (km) Brightness Sun altitude
Rises 00:09:51 0° 166° (SSE) 2,893 6.5 -13.8°
Reaches altitude 10° 00:12:02 10° 165° (SSE) 1,987 5.6 -13.3°
Maximum altitude 00:16:21 80° 78° (ENE) 635 2.7 -12.3°
Drops below altitude 10° 00:20:41 10° 352° (N) 1,987 4.9 -11.3°
Sets 00:22:52 0° 351° (N) 2,893 5.7 -10.8°
